This is the latest recevied weather packets stored in our database for station/object VK3VJP-13. If no packets are shown the sender has not sent any weather packets the latest 1 day(s).
| Time | Temp. | Humidity | Pressure | Rain* | Wind** | Luminosity | Snow |
|---|---|---|---|---|---|---|---|
| 1778027282 | 11.11° C | 77% | 1019.5 hPa | 0 mm | 1.34 m/s, 323° | - | - |
| 1778026982 | 11.11° C | 77% | 1019.6 hPa | 0 mm | 1.34 m/s, 321° | - | - |
| 1778026682 | 11.11° C | 78% | 1019.9 hPa | 0 mm | 1.34 m/s, 281° | - | - |
| 1778026382 | 11.11° C | 78% | 1019.8 hPa | 0 mm | 1.79 m/s, 324° | - | - |
| 1778026082 | 11.11° C | 79% | 1019.9 hPa | 0 mm | 1.79 m/s, 355° | - | - |
| 1778025782 | 11.11° C | 78% | 1019.9 hPa | 0 mm | 1.79 m/s, 326° | - | - |
| 1778025482 | 11.11° C | 78% | 1019.9 hPa | 0 mm | 1.79 m/s, 281° | - | - |
| 1778025182 | 11.11° C | 78% | 1019.9 hPa | 0 mm | 2.24 m/s, 275° | - | - |
| 1778024882 | 11.11° C | 79% | 1020 hPa | 0 mm | 1.79 m/s, 289° | - | - |
| 1778024582 | 11.11° C | 78% | 1019.8 hPa | 0 mm | 1.34 m/s, 340° | - | - |
| 1778024282 | 10.56° C | 79% | 1019.9 hPa | 0 mm | 1.34 m/s, 345° | - | - |
| 1778023982 | 10.56° C | 80% | 1019.9 hPa | 0 mm | 1.34 m/s, 346° | - | - |
| 1778023682 | 10.56° C | 80% | 1020 hPa | 0 mm | 1.34 m/s, 309° | - | - |
| 1778023382 | 10.56° C | 79% | 1020.1 hPa | 0 mm | 1.34 m/s, 336° | - | - |
| 1778023082 | 10.56° C | 81% | 1020 hPa | 0 mm | 1.34 m/s, 270° | - | - |
| 1778022782 | 10.56° C | 81% | 1020 hPa | 0 mm | 1.34 m/s, 292° | - | - |
| 1778022482 | 10.56° C | 81% | 1020 hPa | 0 mm | 1.34 m/s, 307° | - | - |
| 1778022182 | 10.56° C | 82% | 1019.9 hPa | 0 mm | 1.34 m/s, 319° | - | - |
| 1778021882 | 10° C | 83% | 1020 hPa | 0 mm | 1.34 m/s, 313° | - | - |
| 1778021582 | 10° C | 83% | 1020 hPa | 0 mm | 0.89 m/s, 321° | - | - |
| 1778021282 | 10° C | 83% | 1020 hPa | 0 mm | 0.45 m/s, 322° | - | - |
| 1778020982 | 10° C | 83% | 1020 hPa | 0 mm | 0.45 m/s, 345° | - | - |
| 1778020682 | 10° C | 84% | 1020.1 hPa | 0 mm | 0.89 m/s, 315° | - | - |
| 1778020382 | 10° C | 84% | 1020 hPa | 0 mm | 0.89 m/s, 305° | - | - |
| 1778020082 | 10° C | 84% | 1019.9 hPa | 0 mm | 0.89 m/s, 324° | - | - |
* Rain latest hour (hover to see other rain measurements)
** Current wind speed in m/s (hover to see current wind gust speed)